CUTE-1 (CO-55) (27844 NORAD) Tracking and Keplerian Element Data

This shows tracking and keplerian element data for the satellite.

Feedback or suggestion? Click here.




ElementValue
Catalog27844
NameCUTE-1 (CO-55)
Epoch Orbit616
Epoch Day325.00093632
Epoch Year2022
RAAN330.3434
Inclination98.68
Eccentricity0.0010058
Argument of Perigee15.1071
Mean Anonmoly345.0406
Mean Motion14.22543122
Decay Rate2.43E-06
L11 27844U 03031E 22325.00093632 .00000243 00000+0 12820-3 0 9993
L22 27844 98.6800 330.3434 0010058 15.1071 345.0406 14.22543122 6168



Live tracking and technical data element details for CUTE-1 (CO-55) (NORAD 27844). CUTE-1 (CO-55) can be tracked NOW for your location showing map with azimuth and elevation plus other details from your city location.







IsCatalogInMostPopularTable: catalog: 27844, numindb: 519
Update: records affected: 1



GetName: 27844 CUTE-1 (CO-55)

Hit Count: updated at: Fri, 02 Dec 2022 12:19:37 GMT